Weather History for KMWC - May, 2012

Change the Weather History Date:

Wednesday, May 23, 2012

  Actual Average Record
Temperature  
Mean Temperature 58 °F -  
Max Temperature 73 °F 69 °F 90 °F (1977)
Min Temperature 42 °F 49 °F 30 °F (1963)
Degree Days  
Heating Degree Days 8    
Growing Degree Days 8 (Base 50)    
Moisture  
Dew Point 40 °F    
Average Humidity 58    
Maximum Humidity 87    
Minimum Humidity 25    
Precipitation  
Precipitation 0.00 in - - ()
Sea Level Pressure  
Sea Level Pressure 29.86 in    
Wind  
Wind Speed 3 mph (SSE)    
Max Wind Speed 12 mph    
Max Gust Speed 16 mph    
Visibility 10 miles    
Events      
Averages and records for this station are not official NWS values.
T = Trace of Precipitation, MM = Missing Value Source: NWS Daily Summary

Daily Weather History Graph

Daily Weather History Graph

Search for Another Location

Airport or City:

Trip Planner

Search our weather history database for the weather conditions in past years. The results will help you decide how hot, cold, wet, or windy it might be!

Date:

Astronomy

May. 23, 2012 Rise Set
Actual Time 5:20 AM CDT 8:17 PM CDT
Civil Twilight 4:47 AM CDT 8:51 PM CDT
Nautical Twilight 4:04 AM CDT 9:34 PM CDT
Astronomical Twilight 3:14 AM CDT 10:24 PM CDT
Moon 7:23 AM CDT (5/23) 10:38 PM CDT (5/23)
Length of Visible Light 16h 04m
Length of Day
14h 56m
Waxing Crescent, 7% of the Moon is Illuminated
May 23
Waxing Crescent
May 28
First Quarter
Jun 4
Full
Jun 11
Last Quarter
Jun 19
New

Hourly Weather History & Observations

Time (CDT) Temp. Windchill Dew Point Humidity Pressure Visibility Wind Dir Wind Speed Gust Speed Precip Events Conditions
12:15 AM 46.4 °F - 37.4 °F 71% 29.95 in 10.0 mi Calm Calm - N/A   Clear
12:35 AM 50.0 °F - 37.4 °F 62% 29.94 in 10.0 mi Calm Calm - N/A   Clear
12:55 AM 46.4 °F - 37.4 °F 71% 29.94 in 10.0 mi Calm Calm - N/A   Clear
1:15 AM 46.4 °F - 37.4 °F 71% 29.93 in 10.0 mi Calm Calm - N/A   Clear
1:35 AM 46.4 °F - 39.2 °F 76% 29.92 in 10.0 mi Calm Calm - N/A   Clear
1:55 AM 46.4 °F - 39.2 °F 76% 29.92 in 10.0 mi Calm Calm - N/A   Clear
2:15 AM 44.6 °F - 39.2 °F 81% 29.93 in 10.0 mi Calm Calm - N/A   Clear
2:35 AM 44.6 °F - 39.2 °F 81% 29.93 in 10.0 mi Calm Calm - N/A   Clear
3:15 AM 44.6 °F - 39.2 °F 81% 29.92 in 10.0 mi Calm Calm - N/A   Clear
3:35 AM 44.6 °F - 39.2 °F 81% 29.92 in 10.0 mi Calm Calm - N/A   Clear
3:55 AM 44.6 °F - 41.0 °F 87% 29.92 in 10.0 mi Calm Calm - N/A   Clear
4:15 AM 44.6 °F - 41.0 °F 87% 29.91 in 10.0 mi Calm Calm - N/A   Clear
4:35 AM 42.8 °F - 37.4 °F 81% 29.91 in 10.0 mi Calm Calm - N/A   Clear
4:55 AM 42.8 °F - 37.4 °F 81% 29.91 in 10.0 mi Calm Calm - N/A   Clear
5:15 AM 42.8 °F - 37.4 °F 81% 29.92 in 10.0 mi Calm Calm - N/A   Clear
5:35 AM 42.8 °F - 39.2 °F 87% 29.93 in 10.0 mi Calm Calm - N/A   Clear
5:55 AM 44.6 °F - 41.0 °F 87% 29.93 in 10.0 mi Calm Calm - N/A   Clear
6:15 AM 46.4 °F - 41.0 °F 81% 29.92 in 10.0 mi Calm Calm - N/A   Clear
6:35 AM 46.4 °F 45.2 °F 41.0 °F 81% 29.92 in 10.0 mi SSW 3.5 mph - N/A   Clear
6:45 AM 48.2 °F - 44.6 °F 87% 29.92 in 10.0 mi SSE 4.6 mph - N/A   Clear
6:55 AM 48.2 °F - 42.8 °F 82% 29.92 in 10.0 mi South 3.5 mph - N/A   Clear
7:45 AM 57.2 °F - 44.6 °F 63% 29.92 in 10.0 mi SSE 5.8 mph - N/A   Clear
8:45 AM 62.6 °F - 39.2 °F 42% 29.92 in 10.0 mi South 9.2 mph - N/A   Clear
9:45 AM 64.4 °F - 39.2 °F 40% 29.90 in 10.0 mi SE 9.2 mph - N/A   Clear
10:45 AM 68.0 °F - 39.2 °F 35% 29.89 in 10.0 mi SSE 5.8 mph - N/A   Clear
11:45 AM 69.8 °F - 42.8 °F 38% 29.88 in 10.0 mi ESE 11.5 mph - N/A   Clear
12:45 PM 69.8 °F - 41.0 °F 35% 29.87 in 10.0 mi East 9.2 mph - N/A   Clear
1:45 PM 71.6 °F - 41.0 °F 33% 29.85 in 10.0 mi ESE 10.4 mph - N/A   Clear
2:45 PM 71.6 °F - 33.8 °F 25% 29.83 in 10.0 mi ESE 11.5 mph - N/A   Clear
3:45 PM 71.6 °F - 37.4 °F 29% 29.81 in 10.0 mi ESE 9.2 mph - N/A   Clear
4:45 PM 71.6 °F - 37.4 °F 29% 29.79 in 10.0 mi SE 10.4 mph 16.1 mph N/A   Clear
5:45 PM 73.4 °F - 39.2 °F 29% 29.77 in 10.0 mi SSE 11.5 mph - N/A   Clear
6:45 PM 71.6 °F - 35.6 °F 27% 29.76 in 10.0 mi SSE 10.4 mph - N/A   Clear
7:45 PM 69.8 °F - 35.6 °F 28% 29.75 in 10.0 mi SSE 9.2 mph - N/A   Clear
8:45 PM 66.2 °F - 39.2 °F 37% 29.73 in 10.0 mi SE 9.2 mph - N/A   Clear
9:15 PM 64.4 °F - 41.0 °F 42% 29.73 in 10.0 mi SSE 10.4 mph - N/A   Clear
9:35 PM 64.4 °F - 41.0 °F 42% 29.74 in 10.0 mi SSE 9.2 mph - N/A   Clear
9:55 PM 64.4 °F - 41.0 °F 42% 29.74 in 10.0 mi SSE 6.9 mph - N/A   Clear
10:15 PM 64.4 °F - 41.0 °F 42% 29.75 in 10.0 mi SSE 6.9 mph - N/A   Clear
10:35 PM 62.6 °F - 41.0 °F 45% 29.75 in 10.0 mi SSE 5.8 mph - N/A   Clear
10:55 PM 62.6 °F - 41.0 °F 45% 29.74 in 10.0 mi SSE 6.9 mph - N/A   Clear
11:15 PM 62.6 °F - 41.0 °F 45% 29.74 in 10.0 mi SSE 5.8 mph - N/A   Clear
11:35 PM 62.6 °F - 41.0 °F 45% 29.75 in 10.0 mi South 8.1 mph - N/A   Clear